K5RG-3 Weather Reports


Display with metric or nautical units.
time (UTC)temp
F
wind
direction
speed
MPH
gust
MPH
rain 1hr
in
rain 24hr
in
rain mn
in
humidity
%
barometer
mb
20260503031521 65 40 0.0 3.0 0.00 0.02 0.00 68 1018.0
20260503030021 66 61 0.0 0.0 0.00 0.02 0.00 67 1018.1
20260503024521 67 29 0.0 1.0 0.00 0.07 0.00 63 1018.1
20260503023019 68 29 0.0 4.0 0.00 0.07 0.00 61 1017.8
20260503021523 69 21 2.0 4.0 0.00 0.07 0.00 59 1017.7
20260503020031 69 27 1.0 4.0 0.00 0.07 0.00 58 1017.7
20260503014519 70 15 1.0 4.0 0.00 0.13 0.00 57 1017.4
20260503013018 70 13 2.0 4.0 0.00 0.13 0.00 56 1017.2
20260503011519 71 21 2.0 5.0 0.00 0.13 0.00 55 1017.2
20260503010017 72 23 2.0 7.0 0.00 0.13 0.00 53 1016.9
20260503004516 72 355 2.0 6.0 0.00 0.40 0.00 52 1016.7
20260503003027 73 9 2.0 7.0 0.00 0.40 0.00 52 1016.5
20260503001515 74 25 3.0 9.0 0.00 0.40 0.00 49 1016.5
20260503000026 74 1 4.0 12.0 0.00 0.40 0.00 48 1016.4
20260502234521 75 354 1.0 10.0 0.00 0.44 0.00 49 1016.3
20260502233013 75 36 3.0 11.0 0.00 0.44 0.00 48 1016.2
20260502231513 75 40 5.0 15.0 0.00 0.44 0.00 47 1016.2
20260502230013 75 72 4.0 15.0 0.00 0.44 0.00 47 1016.1
20260502224513 75 23 3.0 12.0 0.00 0.45 0.00 46 1015.8
20260502223031 75 51 3.0 16.0 0.00 0.45 0.00 47 1016.1
20260502221511 75 22 7.0 16.0 0.00 0.45 0.00 45 1016.2
20260502220012 75 358 5.0 12.0 0.00 0.45 0.00 45 1016.1
20260502214510 75 29 6.0 16.0 0.00 0.61 0.00 47 1016.2
20260502213008 75 19 5.0 13.0 0.00 0.61 0.00 46 1016.2
20260502211508 75 327 6.0 16.0 0.00 0.61 0.00 45 1016.2
20260502210008 75 76 3.0 16.0 0.00 0.61 0.00 48 1016.3
20260502204508 75 9 7.0 13.0 0.00 1.10 0.00 46 1016.4
20260502203006 75 21 4.0 16.0 0.00 1.10 0.00 48 1016.7
20260502201505 74 69 6.0 16.0 0.00 1.10 0.00 48 1016.7
20260502200004 74 10 3.0 16.0 0.00 1.10 0.00 50 1016.8
20260502194509 74 20 7.0 18.0 0.00 1.70 0.00 47 1017.1
20260502193002 74 36 6.0 14.0 0.00 1.70 0.00 49 1017.3
20260502191501 74 347 6.0 14.0 0.00 1.70 0.00 54 1017.5
20260502190059 73 70 6.0 14.0 0.00 1.70 0.00 49 1017.6
20260502184557 73 7 8.0 16.0 0.00 1.70 0.00 51 1017.7
20260502183104 72 107 5.0 18.0 0.00 1.70 0.00 55 1017.8
20260502181554 73 22 4.0 18.0 0.00 1.70 0.00 54 1018.1
20260502163047 69 36 6.0 16.0 0.00 2.78 0.00 64 1018.2
20260502161553 68 28 6.0 17.0 0.00 2.78 0.00 67 1018.2
20260502151523 65 349 5.0 11.0 0.00 2.81 0.00 74 1018.1
20260502123108 55 18 5.0 10.0 0.00 2.97 0.00 90 1016.5
20260502121541 55 46 4.0 10.0 0.00 2.97 0.00 90 1016.3
20260502114535 55 11 2.0 10.0 0.00 2.97 0.00 89 1016.1
20260502113041 55 15 2.0 8.0 0.00 2.97 0.00 88 1015.9
20260502111532 55 21 2.0 12.0 0.00 2.97 0.00 87 1015.7
20260502110030 55 38 4.0 9.0 0.00 2.97 0.00 86 1015.6
20260502104529 55 61 6.0 12.0 0.00 2.97 0.00 87 1015.4
20260502103025 55 25 2.0 7.0 0.00 2.97 0.00 87 1015.0
20260502101522 55 67 3.0 9.0 0.00 2.97 0.00 87 1014.7
20260502091514 55 47 4.0 15.0 0.00 2.97 0.00 88 1013.8
20260502071501 57 13 6.0 12.0 0.00 2.97 0.00 90 1013.7
20260502070113 57 13 5.0 14.0 0.00 2.97 0.00 91 1013.6
20260502064559 57 67 3.0 14.0 0.00 2.97 0.00 91 1013.4
20260502063100 57 344 6.0 12.0 0.00 2.97 0.00 92 1013.4
20260502061556 57 45 7.0 16.0 0.00 2.97 0.00 92 1013.4
20260502060055 57 34 7.0 18.0 0.00 2.97 0.00 92 1013.3
20260502054553 56 28 8.0 20.0 0.00 3.19 0.00 93 1013.5
20260502053055 56 55 5.0 14.0 0.00 3.19 0.00 93 1013.9
20260502051558 56 35 3.0 11.0 0.00 3.19 0.00 94 1013.6
20260502050049 56 56 3.0 13.0 0.00 3.19 0.00 94 1013.8
20260502044545 56 21 6.0 15.0 0.01 3.21 3.19 94 1013.6
20260502043045 56 21 6.0 18.0 0.01 3.21 3.19 94 1013.7
20260502041538 56 6 6.0 20.0 0.01 3.21 3.19 94 1013.5
20260502040035 57 340 5.0 15.0 0.02 3.21 3.19 94 1013.3
20260502034533 57 38 6.0 14.0 0.03 3.20 3.18 94 1012.7
20260502033029 57 315 6.0 14.0 0.05 3.20 3.18 94 1012.4